Regional Weather Roundup
Issued by NWS Newport/Morehead, NC

Home | Current Version | Previous Version | Text Only | Print | Product List | Glossary On
Versions: 1 2 3 4 5 6 7 8 9 10 11 12 13 14 15 16 17 18 19 20 21 22 23 24 25 26 27 28 29 30 31 32 33 34 35 36 37 38 39 40 41 42 43 44 45 46 47 48 49 50
000
ASUS42 KMHX 291624
RWRMHX
WEATHER ROUNDUP FOR EASTERN NORTH CAROLINA
NATIONAL WEATHER SERVICE NEWPORT/MOREHEAD CITY NC
1200 PM EDT SUN MAR 29 2015

NOTE: "FAIR" INDICATES FEW OR NO CLOUDS BELOW 12,000 FEET
WITH NO SIGNIFICANT WEATHER AND/OR OBSTRUCTIONS TO VISIBILITY

NCZ015>017-031-032-045>047-102-103-291700-
NORTH COAST

CITY           SKY/WX    TMP DP  RH WIND       PRES   REMARKS
EDENTON        SUNNY     40  12  32 NW12G17   30.41F
ELIZABETH CITY SUNNY     39  13  34 NW13G21   30.41S
KITTY HAWK     SUNNY     36  11  34 NW9G16    30.38S
MANTEO         SUNNY     37  13  38 N14       30.40S

$$

NCZ045>047-081-094-103-104-291700-
CENTRAL COAST

CITY           SKY/WX    TMP DP  RH WIND       PRES   REMARKS
FRISCO         SUNNY     40  12  32 N8G17     30.39S
SWANQUARTER      N/A     41 N/A N/A NW14      30.36S

$$

NCZ095-097-098-100-101-291700-
SOUTHERN COAST

CITY           SKY/WX    TMP DP  RH WIND       PRES   REMARKS
BEAUFORT       SUNNY     42  17  36 N15       30.42S
CEDAR ISLAND     N/A     39 N/A N/A NW15G23   30.44S
JACKSONVILLE   SUNNY     42  10  27 NW9G21    30.43F
PINEY ISLAND   SUNNY    N/A N/A N/A NW15G22   30.42S
WILMINGTON     SUNNY     42  12  29 VRB5G17   30.44F


$$

NCZ011>013-027>030-043-044-078>080-089-090>093-098-291700-
COASTAL PLAIN

CITY           SKY/WX    TMP DP  RH WIND       PRES   REMARKS
AHOSKIE        SUNNY     36  10  32 NW6       30.43F
CLINTON        SUNNY     41  13  32 W5        30.46F
ELIZABETHTOWN  SUNNY     43  11  27 W9        30.44F
GOLDSBORO      SUNNY     41  11  29 N12       30.43S
GREENVILLE     SUNNY     41  12  30 N9        30.44S
HAVELOCK       SUNNY     43  13  29 N10G18    30.43F
KENANSVILLE    SUNNY     41   9  26 N5        30.45F
KINSTON        SUNNY     41  10  28 N6        30.45S
NEW BERN       SUNNY     42  14  32 N8        30.44S
RICHLANDS      SUNNY     43  12  28 N7G16     30.44F
ROCKY MOUNT    SUNNY     41  13  31 NW12      30.44F
WASHINGTON     SUNNY     39  12  33 NW9       30.43S
WHITEVILLE     SUNNY     42  13  29 NW6       30.45F

$$

AMZ130-135-150-152-154-156-158-170-250-252-270-ANZ085-086-088-633-658-670-291700-
MARINE OBSERVATIONS

STATION/POSITION TIME  TEMP    WIND        PRES    WAVE   SWELL
                       AIR SEA DIR/SP/G            HT/PER HT/PER
                 (UTC) (F)     (DEG/KT/KT) (MB)    (FT/S) (FT/S)
CHESAPEAKE LIGHT 1600   33     320/ 15/ 18 1029.7
64 E VA BEACH    1550   34 50  330/ 19/ 25 1027.4    6/ 6   2/ 9
DUCK             1600   33 42  310/ 14/ 18 1028.5
2 E DUCK         1511      42                N/A     4/ 6
10 NE DUCK       NOT AVBL
OREGON INLET     1600   34 44  360/ 15/ 19 1029.0
HATTERAS CG      1500   36 48  330/ 18/ 23 1029.5
CAPE LOOKOUT     1600   40     340/ 11/ 13 1029.8
BEAUFORT LAB     1500          350/ 13/ 17 1029.3
27 SE WRIGHTSVLE 1600   37 64   10/ 12/ 16 1031.7
5 SE WRIGHTSVLE  1600   40 55   20/  4/  6 1030.9
225 S CAPE HAT   1550   55 68  330/ 23/ 29 1026.1   10/ 7
41 SE CHARLESTON 1550   46 68   20/ 17/ 21 1030.2    6/ 6   2/ 8

$$


USA.gov is the U.S. government's official web portal to all federal, state and local government web resources and services.